www.pogodaiklimat.ru

Погода и климат >> Архив погоды >> Парагвай >> Консепсьон


ПОГОДА в Консепсьоне

  • Прогноз погоды в Консепсьоне
  • Монитор погоды в Консепсьоне

АРХИВ ПОГОДЫ в Консепсьоне

Время (UTC), дата Ветер
(напр.,м/с)
 
Видим.   Явления Облачность Т
(С)
Тd
(С)
f
(%)
Тe
(С)
Тes
(С)
Комфортность P
(гПа)
Po
(гПа)
Тmin
(С)
Tmax
(С)
R
(мм)
R24
(мм)
S
(см)
18 13.07 С 6 20 км 3/0 2000 м
[Ac As]
+31.0 +12.0 31 +31 +34 жарко 1012.1 1003.6
21 13.07 штиль 0 20 км 4/0 2000 м
[Ac trans Ci fib]
+29.8 +15.4 42 +33 +33 душно 1011.1 1002.6
00 14.07 штиль 0 20 км 9/0 2000 м
[Ac trans]
+22.8 +16.4 67 +27 +27 душно 1011.3 1002.6 +31.5
03 14.07 штиль 0 20 км 10/0 2000 м
[Ac As]
+22.6 +16.7 69 +27 +27 душно 1011.8 1003.1
06 14.07 штиль 0 20 км 10/0 2000 м
[Ac As]
+21.4 +17.4 78 +25 +25 комфорт 1011.8 1003.1
09 14.07 штиль 0 20 км 10/0 2000 м
[Ac As]
+20.6 +17.8 84 +24 +24 комфорт 1011.7 1030.0
12 14.07 штиль 0 20 км 9/0 2000 м
[Ac trans]
+21.2 +16.1 73 +25 +26 комфорт 1012.4 1003.6 +19.0
15 14.07 ЮЗ 2 20 км 10/8 900 м
[Sc Ac As]
+24.0 +17.6 67 +28 +29 душно 1014.1 1005.4
18 14.07 ЮЗ 3 20 км 9/4 1000 м
[Cu Sc Ac As]
+26.0 +18.1 62 +31 +32 очень
душно
1011.8 1003.2
21 14.07 Ю 3 20 км 4/0 2000 м
[Ac trans]
+26.4 +18.0 60 +31 +31 душно 1010.3 1001.7
00 15.07 Ю 3 20 км 3/0 2000 м
[Ac trans]
+21.4 +18.9 86 +26 +26 душно 1012.2 1003.4 +27.0
03 15.07 Ю 2 20 км {гроза, ливн. осадки} 5/0 2000 м
[Ac trans]
+20.6 +19.5 93 +25 +25 комфорт 1013.3 1004.5 2
06 15.07 Ю 4 20 км {гроза, ливн. осадки} 9/0 2000 м
[Ac As]
+20.2 +18.5 90 +24 +24 комфорт 1013.3 1004.5 2
09 15.07 ЮВ 4 20 км гроза без осадков 10/6 600 м
[Cb cap Ac As]
+20.0 +19.6 98 +23 +23 комфорт 1012.3 1003.5 4
12 15.07 ЮВ 3 8000 м дымка {гроза, дождь} 10/10 300 м
[Sc]
+20.0 +19.8 99 +24 +24 комфорт 1014.8 1006.0 +19.8 1
15 15.07 Ю 4 9000 м гроза, ливневой дождь 10/10 300 м
[Cb cap]
+20.2 +19.6 96 +24 +24 комфорт 1016.8 1008.0 0.6
18 15.07 Ю 5 20 км {гроза, дождь} 10/10 300 м
[Sc]
+20.2 +19.6 96 +24 +24 комфорт 1015.9 1007.1 2
21 15.07 Ю 3 20 км 10/5 800 м
[Sc Ac As]
+19.8 +18.6 93 +23 +23 комфорт 1017.1 1008.3
00 16.07 Ю 3 20 км 3/0 2000 м
[Ac trans]
+21.4 +18.9 86 +26 +26 душно 1012.2 1003.4 +27.0
03 16.07 Ю 4 20 км ясно +14.6 +11.6 82 +13 +13 1020.0 1011.0
06 16.07 Ю 3 20 км ясно +13.2 +9.2 77 +12 +12 1019.8 1010.7
09 16.07 штиль 0 20 км ясно +10.4 +9.4 94 +10 +10 1020.6 1011.4
12 16.07 Ю 2 20 км 3/0
[Ci fib]
+10.8 +9.4 91 +10 +12 1022.8 1013.6 +8.4 3
15 16.07 ЮВ 4 20 км 3/0
[Ci fib]
+18.6 +9.5 55 +19 +26 1022.9 1014.0
18 16.07 ЮВ 6 20 км ясно +22.2 +8.4 41 +23 +26 комфорт 1020.1 1011.3
21 16.07 ЮВ 4 20 км ясно +21.0 +7.8 43 +22 +22 комфорт 1019.6 1010.7
00 17.07 ЮВ 3 20 км 3/0
[Ci fib]
+12.6 +9.8 83 +11 +11 1020.9 1011.8 +22.6
03 17.07 ЮВ 2 20 км ясно +10.0 +8.1 88 +9 +9 1021.7 1012.5
06 17.07 штиль 0 20 км ясно +9.0 +7.3 89 +8 +8 1021.0 1011.8
09 17.07 штиль 0 20 км ясно +8.0 +6.3 89 +7 +7 1020.9 1011.5
12 17.07 штиль 0 20 км 1/0 2000 м
[Ac cast]
+10.2 +8.1 87 +9 +12 1021.7 1012.5 +7.4
15 17.07 В 2 20 км 6/0 2000 м
[Ac trans]
+20.8 +11.9 57 +24 +31 комфорт 1022.2 1013.3
18 17.07 В 3 20 км 5/0 2000 м
[Ac trans]
+25.4 +10.1 38 +26 +31 жарко 1018.8 1010.1
21 17.07 В 2 20 км 8/0
[Cs]
+23.0 +14.5 59 +27 +27 душно 1017.9 1009.2
00 18.07 В 2 20 км 6/0
[Cs]
+17.0 +13.8 81 +18 +18 1018.6 1009.7 +26.0
03 18.07 В 2 20 км 8/0
[Cs]
+16.8 +13.3 80 +17 +17 1018.6 1009.7
06 18.07 В 3 20 км 8/0
[Cs]
+16.6 +12.2 75 +17 +17 1017.2 1008.3
09 18.07 В 3 20 км 10/0 2000 м
[Ac As]
+16.4 +11.8 74 +16 +16 1016.4 1007.4
12 18.07 В 4 20 км 10/0 2000 м
[Ac As]
+17.6 +10.7 64 +17 +18 1017.7 1008.8 +10.2
15 18.07 В 4 20 км 10/0 2000 м
[Ac As]
+19.4 +11.4 60 +21 +23 комфорт 1018.6 1009.7
18 18.07 В 5 12 км дым 10/0 2000 м
[Ac As Cs]
+24.0 +13.9 53 +26 +28 жарко 1016.3 1007.6
21 18.07 В 4 20 км 10/8 900 м
[Sc Ac As]
+23.0 +16.4 66 +28 +28 душно 1015.8 1007.1
00 19.07 ЮВ 2 20 км ясно +18.6 +15.9 84 +20 +20 1016.0 1007.1 +24.2
03 19.07 Ю 4 20 км 10/0 2000 м
[Ac As]
+18.6 +14.4 77 +19 +19 1017.6 1008.7
06 19.07 В 3 20 км 10/0 2000 м
[As trans]
+18.2 +12.4 69 +19 +19 1016.7 1007.8
09 19.07 ЮЗ 2 20 км гроза без осадков 10/10 750 м
[Cb cap]
+17.8 +14.4 80 +18 +18 1016.7 1007.8
12 19.07 ЮВ 3 6000 м слаб. дождь {гроза} 10/10 450 м
[Sc]
+15.8 +14.4 91 +15 +15 1020.0 1011.0 +15.8 5
15 19.07 ЮВ 5 8000 м слаб. дождь 10/10 750 м
[Sc]
+16.6 +15.6 94 +16 +16 1021.2 1012.2 3
18 19.07 В 4 20 км {дождь} 10/0 1500 м
[Ac As]
+19.8 +17.1 84 +22 +24 комфорт 1018.0 1009.1 2
21 19.07 В 4 20 км 8/0 2000 м
[Ac As]
+20.8 +17.6 82 +25 +25 комфорт 1016.5 1007.6
00 20.07 В 1 20 км ясно +18.0 +16.0 88 +19 +19 1014.9 1006.0 +21.5
03 20.07 штиль 0 20 км ясно +17.2 +15.1 87 +17 +17 1015.6 1006.7
06 20.07 В 2 20 км ясно +15.0 +13.5 91 +15 +15 1014.4 1005.4
09 20.07 В 2 20 км ясно +16.2 +14.1 87 +17 +17 1014.0 1005.0
12 20.07 В 1 20 км 1/0
[Ci fib]
+17.8 +14.8 83 +19 +22 1014.4 1005.5 +14.5 5

 

Местоположение метеостанции Консепсьон (Парагвай): широта -23.41 долгота -57.30 высота над уровнем моря 74 м.

В архиве по умолчанию представлена погода в Консепсьоне за последнюю неделю. Архивные данные за месяц целиком и за предыдущие месяцы, начиная с января 2011 года, Вы можете получить, выбрав интересующий диапазон дат из раскрывающегося списка и нажав кнопку "Ввод!".


*Определитесь, кто Вы:
робот инопланетянин человек

Внимание! Время в таблицах - всемирное. Для получения местного времени необходимо прибавить поправку, которая равна -4 ч.

Смотрите также архив погоды в соседних городах и на ближайших метеорологических станциях:

Погода в Сан-Педро (Парагвай) (76 км)
Погода в Пуэрто-Касадо (Парагвай) (138 км)
Погода в Посо Колорадо (Парагвай) (163 км)
Погода в Сан Эстанислао (Парагвай) (164 км)
Погода в Бела-Виста (Мату-Гросу-ду-Сул, Бразилия) (165 км)
Погода в Педро-Хуан-Кабальеро (Парагвай) (185 км)
Погода в Понта-Пора (Мату-Гросу-ду-Сул, Бразилия) (191 км)
Погода в Порто Муртиньо (Мату-Гросу-ду-Сул, Бразилия) (192 км)
Погода в Асунсьоне (Парагвай) (206 км)
Погода в Понта-Поране (Мату-Гросу-ду-Сул, Бразилия) (206 км)

Пояснения к столбцам:

Ветер - указаны скорость ветра в м/с - средняя за 10 мин, порывы в срок и между сроками (в фигурных скобках) и направление, откуда дует ветер: С - северный, СВ - северо-восточный, В - восточный, ЮВ - юго-восточный, Ю - южный, ЮЗ - юго-западный, З - западный, СЗ - северо-западный.
Видимость - горизонтальная дальность видимости в метрах или километрах. При видимости от 1 до 10 км при отсутствии осадков обычно наблюдается дымка, при ухудшении видимости до 1 км и менее - туман. В сухую погоду видимость может ухудшаться дымом, пылью или мглою.
Явления - указаны атмосферные явления, наблюдавшиеся в срок или в последний час перед сроком; фигурными скобками обозначены явления, наблюдавшиеся между сроками (за 1-3 часа до срока); квадратными скобками обозначены град или гололедные отложения с указанием их диаметра в мм.
Облачность - указаны через наклонную черту общая и нижняя облачность в баллах и высота нижней границы облаков в метрах; квадратными скобками обозначены формы облаков: Ci - перистые, Cs - перисто-слоистые, Cc - перисто-кучевые, Ac - высококучевые, As - высокослоистые, Sc - слоисто-кучевые, Ns - слоисто-дождевые, Cu - кучевые, Cb - кучево-дождевые. Подробнее классификацию облаков см. в Атласе облаков (PDF).
T - Температура воздуха - температура, измеренная на высоте 2 м над землей.
Td - Температура точки росы - температура, при понижении до которой содержащийся в воздухе водяной пар достигнет насыщения.
f - Относительная влажность воздуха - влажноcть воздуха, измеренная на высоте 2 м над землей.
Te - Эффективная температура - температура, которую ощущает одетый по сезону человек в тени. Характеристика душности погоды. При расчете учитывается влияние влажности воздуха и скорости ветра на теплоощущения человека.
Tes - Эффективная температура на солнце - температура, которую ощущает человек, с поправкой на солнечный нагрев. Характеристика знойности погоды. Зависит от высоты солнца над горизонтом, облачности и скорости ветра. Ночью, в пасмурную погоду, а также при ветре 12 м/с и более поправка равна нулю.
P - Атмосферное давление - приведенное к уровню моря атмосферное давление.
Po - Атмосферное давление - измеренное на уровне метеостанции атмосферное давление.
Tmin - Минимальная температура - минимум температуры воздуха на высоте 2 м над землей.
Tmax - Максимальная температура - максимум температуры воздуха на высоте 2 м над землей.
R - Количество осадков - Количество выпавших осадков за период времени, мм. При наведении курсора мыши на число - период времени, за который выпало указанное количество осадков.
R24 - Количество осадков - Количество выпавших осадков за 24 часа, мм.
S - Снежный покров - Высота снежного покрова, см. При наведении курсора мыши на число - состояние снежного покрова и степень покрытия местности в баллах.